Printer-friendly version

IAU Minor Planet Center

Minor Planet Center

MPEC 2007-V53 : COMET C/2007 T1 (McNAUGHT)

The following Minor Planet Electronic Circular may be linked-to from your own Web pages, but must not otherwise be redistributed electronically.


Read MPEC 2007-V52 Read MPEC 2007-V54


M.P.E.C. 2007-V53                                Issued 2007 Nov. 6, 17:20 UT

     The Minor Planet Electronic Circulars contain information on unusual
         minor planets and routine data on comets.  They are published
   on behalf of Commission 20 of the International Astronomical Union by the
          Minor Planet Center, Smithsonian Astrophysical Observatory,
                          Cambridge, MA 02138, U.S.A.

             Prepared using the Tamkin Foundation Computer Network

                              MPC@CFA.HARVARD.EDU
          URL http://www.cfa.harvard.edu/iau/mpc.html  ISSN 1523-6714

                          COMET C/2007 T1 (McNAUGHT)

Observations:
    CK07T010  C2007 11 03.36066 17 08 50.05 -25 07 26.9                 EV053349
    CK07T010  C2007 11 03.36165 17 08 50.04 -25 07 28.5                 EV053349
    CK07T010  C2007 11 03.36259 17 08 50.01 -25 07 30.4          11.8 T EV053349
    CK07T010  C2007 11 04.36100 17 08 40.10 -25 40 12.4                 EV053349
    CK07T010  C2007 11 04.36203 17 08 40.07 -25 40 14.1          11.8 T EV053349

Observer details:
349 Ageo.  Observer K. Kadota.  0.25-m f/5.0 reflector + CCD.

Orbital elements:
    C/2007 T1 (McNaught)
T 2007 Dec. 12.520 TT                                   MPC
q   0.96882              (2000.0)            P               Q
                   Peri.  233.728       -0.132086       -0.550093
                   Node   111.429       -0.346596       +0.805000
e   1.0            Incl.  117.646       -0.928668       -0.222200
From 212 observations 2007 Oct. 9-Nov. 4.

Brian G. Marsden             (C) Copyright 2007 MPC           M.P.E.C. 2007-V53

Read MPEC 2007-V52 Read MPEC 2007-V54


Our Web policy. Index to the CBAT/MPC/ICQ pages.


Valid HTML 4.01!